Location: Cactus School
(34.5700°N, 118.0931°W)
Time: 06:21:21
(UTC-07:00)

Transit 4A - Pass Details

Date: 18 April 2024
Orbit: 871 x 971 km, 66.8° (Epoch: 22 May)

Event Time Altitude Azimuth Distance (km) Brightness Sun altitude
Rises 21:55:06 0° 346° (NNW) 3,464 11.7 -27.9°
Reaches altitude 10° 21:58:05 10° 360° (N) 2,525 10.6 -28.4°
Enters shadow 22:01:58 23° 41° (NE) 1,762 9.3 -29.0°
Maximum altitude 22:02:43 24° 53° (NE) 1,737 - -29.1°
Drops below altitude 10° 22:07:23 10° 106° (ESE) 2,542 - -29.8°
Sets 22:10:22 0° 120° (ESE) 3,493 - -30.3°
